Date String (YYYY-MM-DD hh:mm:ss) UTC,Instrument flags,absolute air pressure of the measurement (hPa),sample flow rate (lpm),inlet stack bypass flow (lpm),air temperature of the measurement (°C),ambient temperature measured by the external sensor (°C),aerosol sample conditioner tube jacket temperature (°C),OPC LED temperature (°C),internal box temperature (°C),relative humidity of the measurement (%),span deviation,mass concentration of particles derived from Lorenz-Mie calculation of OPC scattering (μg/m³),mass concentration of particles derived from Lorenz-Mie calculation of OPC scattering (μg/m³),mass concentration of particles derived from Lorenz-Mie calculation of OPC scattering (μg/m³)
DateTimeUTC,F1_M11,P_M11,Q1_M11,Q2_M11,T1_M11,T2_M11,T3_M11,T4_M11,T5_M11,U1_M11,ZSPAN_M11,X2_M11,X0_M11,X1_M11
2024-04-08 11:00:00,SystemResetWarning,0823.7,4.99,000.00,018.3,017.5,000.0,026.9,020.0,012.7,0000.0,0002.19,0005.21,0001.37
2024-04-08 11:01:00,SystemResetWarning,0823.7,5.00,000.00,018.3,017.5,000.0,026.9,020.0,013.3,0000.0,0002.22,0005.49,0001.36
2024-04-08 11:02:00,SystemResetWarning,0823.7,5.01,000.00,018.3,017.5,000.0,026.9,020.0,013.4,0000.0,0002.23,0005.79,0001.36
2024-04-08 11:03:00,SystemResetWarning,0823.7,5.01,000.00,018.3,017.5,000.0,026.9,020.0,013.5,0000.0,0002.30,0007.25,0001.36
2024-04-08 11:04:00,SystemResetWarning,0823.7,5.00,000.00,018.3,017.5,000.0,026.9,020.0,013.6,0000.0,0002.30,0007.29,0001.34
2024-04-08 11:05:00,SystemResetWarning,0823.8,5.00,000.00,018.3,017.5,000.0,026.9,020.0,013.7,0000.0,0002.27,0007.29,0001.34
2024-04-08 11:06:00,SystemResetWarning,0823.8,5.00,000.00,018.3,017.5,000.0,026.9,020.0,013.7,0000.0,0002.25,0007.21,0001.35
2024-04-08 11:07:00,SystemResetWarning,0823.8,5.00,000.00,018.3,017.5,000.0,026.9,020.0,013.7,0000.0,0002.21,0007.02,0001.36
2024-04-08 11:08:00,SystemResetWarning,0823.8,5.00,000.00,018.3,017.5,000.0,026.9,020.0,013.7,0000.0,0002.21,0006.91,0001.37
2024-04-08 11:09:00,SystemResetWarning,0823.8,5.00,000.00,018.3,017.5,000.0,026.9,020.0,013.7,0000.0,0002.18,0006.42,0001.38
2024-04-08 11:10:00,SystemResetWarning,0823.9,5.00,000.00,018.2,017.5,000.0,026.9,020.0,013.7,0000.0,0002.19,0005.61,0001.39
2024-04-08 11:11:00,SystemResetWarning,0823.9,5.02,000.00,018.2,017.5,000.0,026.9,020.0,013.5,0000.0,0002.22,0005.68,0001.41
2024-04-08 11:12:00,SystemResetWarning,0823.9,5.00,000.00,018.3,017.5,000.0,026.9,020.0,013.7,0000.0,0002.18,0005.43,0001.42
2024-04-08 11:13:00,SystemResetWarning,0823.9,5.00,000.00,018.2,017.5,000.0,026.9,020.0,013.5,0000.0,0002.15,0005.08,0001.43
2024-04-08 11:14:00,SystemResetWarning,0823.8,5.00,000.00,018.3,017.6,000.0,027.0,020.1,013.3,0000.0,0002.10,0003.63,0001.43
2024-04-08 11:15:00,SystemResetWarning,0823.8,5.00,000.00,018.4,018.2,000.0,027.0,020.4,013.3,0000.0,0002.06,0003.49,0001.44
2024-04-08 11:16:00,SystemResetWarning,0823.8,5.00,000.00,018.6,018.8,000.0,027.1,020.8,013.1,0000.0,0002.09,0003.65,0001.45
2024-04-08 11:17:00,SystemResetWarning,0823.8,4.98,000.00,018.7,018.7,000.0,027.0,020.8,012.5,0000.0,0002.12,0003.90,0001.46
2024-04-08 11:18:00,SystemResetWarning,0823.8,5.01,000.00,018.7,018.6,000.0,027.0,020.6,012.2,0000.0,0002.15,0004.06,0001.45
2024-04-08 11:19:00,SystemResetWarning,0823.8,5.01,000.00,018.7,018.5,000.0,027.0,020.6,012.0,0000.0,0002.13,0004.17,0001.44
2024-04-08 11:20:00,SystemResetWarning,0823.8,4.99,000.00,018.7,018.3,000.0,027.0,020.5,011.9,0000.0,0002.17,0004.27,0001.44
2024-04-08 11:21:00,SystemResetWarning,0823.8,4.99,000.00,018.7,018.2,000.0,027.0,020.4,012.0,0000.0,0002.17,0004.28,0001.45
2024-04-08 11:22:00,SystemResetWarning,0823.8,5.01,000.00,018.6,018.2,000.0,027.1,020.4,012.4,0000.0,0002.18,0004.28,0001.45
2024-04-08 11:23:00,SystemResetWarning,0823.8,5.01,000.00,018.6,018.1,000.0,027.1,020.4,012.7,0000.0,0002.22,0004.46,0001.44
2024-04-08 11:24:00,SystemResetWarning,0823.8,5.01,000.00,018.6,018.0,000.0,027.1,020.3,012.5,0000.0,0002.28,0004.63,0001.44
2024-04-08 11:25:00,SystemResetWarning,0823.8,4.99,000.00,018.6,018.0,000.0,027.1,020.3,012.3,0000.0,0002.25,0005.16,0001.44
2024-04-08 11:26:00,SystemResetWarning,0823.8,5.00,000.00,018.6,017.9,000.0,027.1,020.3,012.3,0000.0,0002.31,0005.75,0001.44
2024-04-08 11:27:00,SystemResetWarning,0823.8,5.00,000.00,018.6,017.9,000.0,027.1,020.3,012.3,0000.0,0002.31,0005.83,0001.44
2024-04-08 11:28:00,SystemResetWarning,0823.8,5.00,000.00,018.6,017.9,000.0,027.1,020.3,012.5,0000.0,0002.36,0005.84,0001.43
2024-04-08 11:29:00,SystemResetWarning,0823.9,4.99,000.00,018.6,017.9,000.0,027.1,020.3,012.7,0000.0,0002.40,0005.90,0001.43
2024-04-08 11:30:00,SystemResetWarning,0823.9,5.00,000.00,018.5,017.8,000.0,027.1,020.2,012.9,0000.0,0002.47,0006.45,0001.44
2024-04-08 11:31:00,SystemResetWarning,0823.9,5.00,000.00,018.5,017.8,000.0,027.1,020.2,012.9,0000.0,0002.50,0007.32,0001.44
2024-04-08 11:32:00,SystemResetWarning,0823.9,5.00,000.00,018.5,017.8,000.0,027.1,020.2,013.0,0000.0,0002.64,0008.11,0001.43
2024-04-08 11:33:00,SystemResetWarning,0823.8,5.00,000.00,018.5,017.8,000.0,027.1,020.2,013.0,0000.0,0002.79,0008.71,0001.43
2024-04-08 11:34:00,SystemResetWarning,0823.8,5.00,000.00,018.5,017.8,000.0,027.1,020.2,013.1,0000.0,0002.87,0009.07,0001.44
2024-04-08 11:35:00,SystemResetWarning,0823.9,5.01,000.00,018.5,017.8,000.0,027.0,020.2,012.7,0000.0,0002.98,0010.42,0001.42
2024-04-08 11:36:00,SystemResetWarning,0823.8,5.00,000.00,018.5,017.8,000.0,027.0,020.2,012.1,0000.0,0002.99,0010.63,0001.42
2024-04-08 11:37:00,SystemResetWarning,0823.9,5.00,000.00,018.5,017.8,000.0,027.0,020.1,012.0,0000.0,0003.02,0010.60,0001.40
2024-04-08 11:38:00,SystemResetWarning,0823.9,5.00,000.00,018.4,017.8,000.0,027.0,020.1,012.3,0000.0,0003.05,0011.15,0001.39
2024-04-08 11:39:00,SystemResetWarning,0823.9,5.00,000.00,018.4,017.8,000.0,027.0,020.1,012.8,0000.0,0003.06,0011.22,0001.39
2024-04-08 11:40:00,SystemResetWarning,0824.0,5.00,000.00,018.4,017.8,000.0,027.0,020.1,012.7,0000.0,0003.06,0011.88,0001.39
2024-04-08 11:41:00,SystemResetWarning,0824.0,5.00,000.00,018.4,017.8,000.0,027.0,020.1,012.3,0000.0,0003.05,0011.85,0001.39
2024-04-08 11:42:00,SystemResetWarning,0824.0,5.00,000.00,018.4,017.7,000.0,027.0,020.1,012.1,0000.0,0003.00,0011.21,0001.40
2024-04-08 11:43:00,SystemResetWarning,0824.0,5.00,000.00,018.4,017.7,000.0,027.0,020.1,012.7,0000.0,0002.91,0010.50,0001.40
2024-04-08 11:44:00,SystemResetWarning,0824.0,5.00,000.00,018.4,017.6,000.0,027.0,020.0,013.1,0000.0,0002.80,0010.01,0001.40
2024-04-08 11:45:00,SystemResetWarning,0824.0,4.99,000.00,018.3,017.6,000.0,027.0,020.0,013.3,0000.0,0002.73,0009.64,0001.40
2024-04-08 11:46:00,SystemResetWarning,0824.0,4.99,000.00,018.3,017.5,000.0,027.0,020.0,013.3,0000.0,0002.61,0008.31,0001.41
2024-04-08 11:47:00,SystemResetWarning,0824.0,5.00,000.00,018.3,017.5,000.0,027.0,020.0,013.0,0000.0,0002.60,0007.81,0001.41
2024-04-08 11:48:00,SystemResetWarning,0824.0,5.01,000.00,018.3,017.5,000.0,027.0,020.0,012.9,0000.0,0002.57,0007.74,0001.40
2024-04-08 11:49:00,SystemResetWarning,0824.0,5.01,000.00,018.3,017.5,000.0,027.0,020.0,013.1,0000.0,0002.53,0006.93,0001.41
2024-04-08 11:50:00,SystemResetWarning,0824.0,5.00,000.00,018.3,017.5,000.0,027.0,020.0,013.1,0000.0,0002.44,0006.60,0001.41
2024-04-08 11:51:00,SystemResetWarning,0823.9,5.00,000.00,018.3,017.5,000.0,027.0,020.0,013.0,0000.0,0002.42,0005.56,0001.40
2024-04-08 11:52:00,SystemResetWarning,0824.0,5.00,000.00,018.3,017.4,000.0,027.0,020.0,013.0,0000.0,0002.42,0005.30,0001.39
2024-04-08 11:53:00,SystemResetWarning,0824.0,4.99,000.00,018.3,017.4,000.0,026.9,020.0,013.0,0000.0,0002.43,0005.43,0001.37
2024-04-08 11:54:00,SystemResetWarning,0824.0,4.99,000.00,018.3,017.4,000.0,027.0,020.0,012.9,0000.0,0002.44,0005.58,0001.36
2024-04-08 11:55:00,SystemResetWarning,0824.0,5.01,000.00,018.3,017.4,000.0,027.0,020.0,012.8,0000.0,0002.43,0005.56,0001.36
2024-04-08 11:56:00,SystemResetWarning,0824.0,5.01,000.00,018.2,017.4,000.0,026.9,020.0,012.8,0000.0,0002.41,0005.66,0001.35
2024-04-08 11:57:00,SystemResetWarning,0824.0,5.00,000.00,018.2,017.4,000.0,026.9,020.0,012.7,0000.0,0002.47,0006.27,0001.35
2024-04-08 11:58:00,SystemResetWarning,0824.0,5.00,000.00,018.2,017.4,000.0,026.9,020.0,012.6,0000.0,0002.56,0008.56,0001.34
2024-04-08 11:59:00,SystemResetWarning,0824.0,5.01,000.00,018.2,017.4,000.0,026.9,020.0,012.6,0000.0,0002.62,0008.91,0001.35
